CAPE
11 2 4 6 3 2 5 4 5 2 1 1 1 1 0 1 0 0 0 0 0 0 0 1 1 2 0 0 0 0 0 0 76 0 0 0 0 0 0 14 36 42 11 0 0 0 0
3 7 9 7 6 3 3 4 3 3 2 2 1 0 0 0 0 0 0 0 0 0 0 1 3 1 0 0 0 0 0 0 0 0 0 0 0 0 0 0 0 0 0 0 0 0 0
7 10 8 3 7 5 5 3 2 2 1 1 0 0 0 0 0 0 0 0 0 0 0 0 3 0 0 0 0 0 0 0 0 0 0 0 0 0 0 0 0 0 0 0 0 0 0
7 11 10 2 5 6 3 3 2 1 1 0 0 0 0 0 0 0 0 0 0 0 0 2 1 0 0 0 0 0 0 0 0 0 0 0 0 0 0 0 0 0 0 0 0 0 0
6 10 11 6 6 4 3 3 2 0 0 0 0 0 0 0 0 0 0 0 0 0 1 1 0 0 0 0 0 0 0 0 0 0 0 0 0 0 0 0 0 0 0 0 0 0 0
12 12 3 6 5 4 1 2 1 0 0 0 0 0 0 0 0 0 0 0 0 0 0 1 0 0 0 0 0 0 0 0 0 0 0 0 0 0 0 0 0 0 0 0 0 0 0
5 5 5 6 5 4 3 2 1 1 0 0 0 0 0 0 0 0 0 0 0 0 0 0 0 0 0 0 0 0 0 0 0 0 0 0 0 0 0 0 0 0 0 0 0 0 0
7 6 6 4 3 2 1 1 0 0 0 0 0 0 0 0 0 0 0 0 0 0 0 0 0 0 0 0 0 0 0 0 0 0 0 0 0 0 0 0 0 0 0 0 0 0 0
7 5 3 3 3 2 1 0 0 0 0 0 0 0 0 0 0 0 0 0 0 0 0 0 0 0 0 0 0 0 0 0 0 0 0 0 0 0 0 0 0 0 0 0 0 0 0
2 3 1 1 1 0 0 0 1 0 0 0 0 0 0 0 0 0 0 0 0 0 0 0 0 0 0 0 0 0 0 0 0 0 0 0 0 0 0 0 0 0 0 0 0 0 0
1 4 6 4 3 1 0 0 0 0 0 0 0 0 0 0 0 0 0 0 0 0 0 0 0 0 0 0 0 0 0 0 0 0 0 0 0 0 0 0 0 0 0 0 0 0 0
1 2 5 7 5 1 0 0 0 0 0 0 0 0 0 0 0 0 0 0 0 0 0 0 0 0 0 0 0 0 0 0 0 0 0 0 0 0 0 0 0 0 0 0 0 0 0
2 1 6 4 1 0 1 0 1 0 0 0 0 0 0 0 0 0 0 0 0 0 0 0 0 0 0 0 0 0 0 0 0 0 0 0 0 0 0 0 0 0 0 0 0 0 0
2 3 4 3 0 0 0 0 0 0 0 0 0 0 0 0 0 0 0 0 0 0 0 0 0 0 0 0 0 0 0 0 0 0 0 0 0 0 0 0 0 0 0 0 0 0 0
3 3 2 0 0 0 0 0 0 0 0 0 0 0 0 0 0 0 0 0 0 0 0 0 0 0 0 0 0 0 0 0 0 0 0 0 0 0 0 0 0 0 0 0 0 0 0
1 1 1 0 1 1 2 4 0 0 0 0 0 0 0 0 0 0 0 0 0 0 0 0 0 0 0 0 0 0 0 0 0 0 0 0 0 0 0 0 0 0 0 0 0 0 0
0 2 1 1 0 0 0 2 0 0 0 0 0 0 0 0 0 0 0 0 0 0 0 0 0 0 0 0 0 0 0 0 0 0 0 0 0 0 0 0 0 0 0 0 0 0 0
2 0 0 0 0 3 7 0 0 0 0 0 0 0 0 0 0 0 0 0 0 0 0 0 0 0 0 0 0 0 0 0 0 0 0 0 0 0 0 0 0 0 0 0 0 0 0
0 0 4 4 3 5 5 0 0 0 0 0 0 0 0 0 0 0 0 0 0 3 3 0 0 0 0 0 0 0 0 0 0 0 0 0 0 0 0 0 0 0 0 0 0 0 0
0 5 8 4 1 0 7 4 0 0 0 0 0 0 0 0 0 2 1 0 0 0 7 4 4 0 0 0 0 0 0 0 0 0 0 0 0 0 0 0 0 0 0 0 0 0 0
5 6 6 5 4 2 6 8 3 0 0 0 0 0 0 0 0 0 3 0 2 3 0 1 0 0 2 0 0 0 0 0 0 0 0 0 0 0 0 0 0 0 0 0 0 0 0
4 5 6 6 4 2 1 0 1 3 0 0 0 4 4 2 4 3 0 0 4 4 2 0 3 1 2 1 0 1 0 0 0 0 0 0 0 0 0 0 0 0 0 0 0 0 0
4 5 7 6 4 3 2 0 3 9 0 2 3 6 3 3 0 2 3 1 3 11 0 10 6 1 0 0 0 0 0 0 0 0 0 0 0 0 0 0 0 0 0 0 0 0 0
1 1 2 1 1 2 3 1 1 13 8 6 2 13 12 0 1 1 5 6 2 9 6 0 0 1 0 0 0 0 0 0 0 0 0 0 0 0 0 0 0 0 0 0 0 0 0
0 0 0 0 0 0 3 5 19 11 19 5 4 18 7 1 5 2 6 2 0 0 5 0 0 0 0 0 0 0 0 0 0 0 0 0 0 0 0 0 0 0 0 0 0 0 0
0 0 0 0 0 0 1 6 14 16 20 10 1 11 17 1 0 1 10 2 0 1 2 3 0 0 0 2 0 0 0 0 0 0 0 0 0 0 0 0 0 0 0 0 0 0 0
0 0 0 0 0 0 0 4 14 25 21 15 3 0 12 4 3 3 6 4 1 0 0 2 2 0 0 2 0 1 0 0 0 0 0 0 0 0 0 0 0 0 0 40 0 0 0
0 0 0 0 0 0 0 4 10 27 23 23 1 0 5 3 2 7 2 2 12 4 1 1 1 1 8 8 7 4 1 5 0 0 0 0 0 0 0 0 0 0 0 0 17 8 0
0 0 0 0 0 0 3 4 8 12 25 33 2 0 0 9 0 0 0 2 3 4 5 2 1 1 1 3 0 1 3 3 2 1 1 0 0 33 0 0 0 0 0 0 46 15 24
CIN
-0 -0 -0 -0 -0 -0 -0 -0 -0 -0 -0 -0 -0 -0 -0 -0 -0 -0 -0 -0 -0 -0 -0 -0 -0 -0 -0 -0 -0 -0 -0 -0 -151 -0 -0 -0 -0 -0 -0 -222 -225 -199 -188 -0 -0 -0 -0
-0 -0 -0 -0 -0 -0 -0 -0 -0 -0 -0 -0 -0 -0 -0 -0 -0 -0 -0 -0 -0 -0 -0 -0 -0 -0 -0 -0 -0 -0 -0 -0 -0 -0 -0 -0 -0 -0 -0 -0 -0 -0 -0 -0 -0 -0 -0
-0 -0 -0 -0 -0 -0 -0 -0 -0 -0 -0 -0 -0 -0 -0 -0 -0 -0 -0 -0 -0 -0 -0 -0 -0 -0 -0 -0 -0 -0 -0 -0 -0 -0 -0 -0 -0 -0 -0 -0 -0 -0 -0 -0 -0 -0 -0
-0 -0 -0 -0 -0 -0 -0 -0 -0 -0 -0 -0 -0 -0 -0 -0 -0 -0 -0 -0 -0 -0 -0 -0 -0 -0 -0 -0 -0 -0 -0 -0 -0 -0 -0 -0 -0 -0 -0 -0 -0 -0 -0 -0 -0 -0 -0
-0 -0 -0 -0 -0 -0 -0 -0 -0 -0 -0 -0 -0 -0 -0 -0 -0 -0 -0 -0 -0 -0 -0 -0 -0 -0 -0 -0 -0 -0 -0 -0 -0 -0 -0 -0 -0 -0 -0 -0 -0 -0 -0 -0 -0 -0 -0
-0 -0 -0 -0 -0 -0 -0 -0 -0 -0 -0 -0 -0 -0 -0 -0 -0 -0 -0 -0 -0 -0 -0 -0 -0 -0 -0 -0 -0 -0 -0 -0 -0 -0 -0 -0 -0 -0 -0 -0 -0 -0 -0 -0 -0 -0 -0
-0 -0 -0 -0 -0 -0 -0 -0 -0 -0 -0 -0 -0 -0 -0 -0 -0 -0 -0 -0 -0 -0 -0 -0 -0 -0 -0 -0 -0 -0 -0 -0 -0 -0 -0 -0 -0 -0 -0 -0 -0 -0 -0 -0 -0 -0 -0
-0 -0 -0 -0 -0 -0 -0 -0 -0 -0 -0 -0 -0 -0 -0 -0 -0 -0 -0 -0 -0 -0 -0 -0 -0 -0 -0 -0 -0 -0 -0 -0 -0 -0 -0 -0 -0 -0 -0 -0 -0 -0 -0 -0 -0 -0 -0
-0 -0 -0 -0 -0 -0 -0 -0 -0 -0 -0 -0 -0 -0 -0 -0 -0 -0 -0 -0 -0 -0 -0 -0 -0 -0 -0 -0 -0 -0 -0 -0 -0 -0 -0 -0 -0 -0 -0 -0 -0 -0 -0 -0 -0 -0 -0
-0 -0 -0 -0 -0 -0 -0 -0 -0 -0 -0 -0 -0 -0 -0 -0 -0 -0 -0 -0 -0 -0 -0 -0 -0 -0 -0 -0 -0 -0 -0 -0 -0 -0 -0 -0 -0 -0 -0 -0 -0 -0 -0 -0 -0 -0 -0
-0 -0 -0 -0 -0 -0 -0 -0 -0 -0 -0 -0 -0 -0 -0 -0 -0 -0 -0 -0 -0 -0 -0 -0 -0 -0 -0 -0 -0 -0 -0 -0 -0 -0 -0 -0 -0 -0 -0 -0 -0 -0 -0 -0 -0 -0 -0
-0 -0 -0 -0 -0 -0 -0 -0 -0 -0 -0 -0 -0 -0 -0 -0 -0 -0 -0 -0 -0 -0 -0 -0 -0 -0 -0 -0 -0 -0 -0 -0 -0 -0 -0 -0 -0 -0 -0 -0 -0 -0 -0 -0 -0 -0 -0
-0 -0 -0 -0 -0 -0 -0 -0 -0 -0 -0 -0 -0 -0 -0 -0 -0 -0 -0 -0 -0 -0 -0 -0 -0 -0 -0 -0 -0 -0 -0 -0 -0 -0 -0 -0 -0 -0 -0 -0 -0 -0 -0 -0 -0 -0 -0
-1 -0 -0 -0 -0 -0 -0 -0 -0 -0 -0 -0 -0 -0 -0 -0 -0 -0 -0 -0 -0 -0 -0 -0 -0 -0 -0 -0 -0 -0 -0 -0 -0 -0 -0 -0 -0 -0 -0 -0 -0 -0 -0 -0 -0 -0 -0
-0 -0 -0 -0 -0 -0 -0 -0 -0 -0 -0 -0 -0 -0 -0 -0 -0 -0 -0 -0 -0 -0 -0 -0 -0 -0 -0 -0 -0 -0 -0 -0 -0 -0 -0 -0 -0 -0 -0 -0 -0 -0 -0 -0 -0 -0 -0
-0 -0 -0 -0 -0 -0 -0 -0 -0 -0 -0 -0 -0 -0 -0 -0 -0 -0 -0 -0 -0 -0 -0 -0 -0 -0 -0 -0 -0 -0 -0 -0 -0 -0 -0 -0 -0 -0 -0 -0 -0 -0 -0 -0 -0 -0 -0
-0 -0 -0 -0 -0 -0 -0 -0 -0 -0 -0 -0 -0 -0 -0 -0 -0 -0 -0 -0 -0 -0 -0 -0 -0 -0 -0 -0 -0 -0 -0 -0 -0 -0 -0 -0 -0 -0 -0 -0 -0 -0 -0 -0 -0 -0 -0
-0 -0 -0 -0 -0 -0 -0 -0 -0 -0 -0 -0 -0 -0 -0 -0 -0 -0 -0 -0 -0 -0 -0 -0 -0 -0 -0 -0 -0 -0 -0 -0 -0 -0 -0 -0 -0 -0 -0 -0 -0 -0 -0 -0 -0 -0 -0
-0 -0 -1 -1 -1 -1 -1 -0 -0 -0 -0 -0 -0 -0 -0 -0 -0 -0 -0 -0 -0 -0 -1 -0 -0 -0 -0 -0 -0 -0 -0 -0 -0 -0 -0 -0 -0 -0 -0 -0 -0 -0 -0 -0 -0 -0 -0
-0 -0 -0 -0 -1 -0 -1 -1 -0 -0 -0 -0 -0 -0 -0 -0 -0 -0 -0 -0 -0 -0 -2 -3 -0 -0 -0 -0 -0 -0 -0 -0 -0 -0 -0 -0 -0 -0 -0 -0 -0 -0 -0 -0 -0 -0 -0
-0 -0 -0 -0 -0 -0 -0 -1 -1 -0 -0 -0 -0 -0 -0 -0 -0 -0 -0 -0 -0 -0 -0 -0 -0 -0 -0 -0 -0 -0 -0 -0 -0 -0 -0 -0 -0 -0 -0 -0 -0 -0 -0 -0 -0 -0 -0
-0 -0 -0 -0 -0 -0 -0 -0 -6 -1 -0 -0 -0 -0 -0 -0 -0 -0 -0 -1 -0 -0 -0 -1 -0 -0 -0 -0 -0 -0 -0 -0 -0 -0 -0 -0 -0 -0 -0 -0 -0 -0 -0 -0 -0 -0 -0
-0 -0 -0 -0 -0 -0 -0 -0 -3 -3 -0 -6 -12 -9 -5 -0 -0 -0 -1 -1 -1 -0 -0 -0 -0 -0 -0 -0 -0 -0 -0 -0 -0 -0 -0 -0 -0 -0 -0 -0 -0 -0 -0 -0 -0 -0 -0
-0 -0 -0 -0 -0 -0 -0 -0 -0 -1 -4 -2 -3 -0 -0 -0 -2 -0 -1 -0 -1 -0 -0 -0 -0 -0 -0 -0 -0 -0 -0 -0 -0 -0 -0 -0 -0 -0 -0 -0 -0 -0 -0 -0 -0 -0 -0
-0 -0 -0 -0 -0 -0 -0 -0 -0 -3 -1 -3 -4 -0 -0 -0 -0 -0 -0 -1 -0 -0 -0 -0 -0 -0 -0 -0 -0 -0 -0 -0 -0 -0 -0 -0 -0 -0 -0 -0 -0 -0 -0 -0 -0 -0 -0
-0 -0 -0 -0 -0 -0 -0 -0 -0 -1 -1 -2 -4 -8 -0 -0 -0 -1 -0 -1 -0 -1 -0 -0 -0 -0 -0 -0 -0 -0 -0 -0 -0 -0 -0 -0 -0 -0 -0 -0 -0 -0 -0 -0 -0 -0 -0
-0 -0 -0 -0 -0 -0 -0 -0 -0 -0 -0 -0 -2 -2 -0 -1 -1 -0 -0 -0 -1 -0 -0 -3 -0 -0 -1 -0 -0 -0 -0 -4 -0 -0 -0 -0 -0 -0 -0 -0 -0 -0 -0 -22 -0 -0 -0
-0 -0 -0 -0 -0 -0 -0 -0 -0 -0 -0 -0 -4 -0 -1 -0 -0 -0 -0 -0 -0 -0 -1 -3 -0 -0 -1 -0 -0 -0 -0 -1 -0 -0 -0 -0 -0 -0 -0 -0 -0 -0 -0 -0 -25 -111 -0
-0 -0 -0 -0 -0 -0 -0 -0 -0 -0 -0 -0 -2 -0 -0 -0 -0 -5 -0 -1 -0 -0 -0 -0 -7 -8 -5 -2 -0 -1 -0 -3 -2 -1 -2 -0 -0 -1 -0 -0 -0 -0 -0 -0 -94 -120 -159
Wind_Speed
34 34 34 34 35 35 35 36 36 36 37 37 38 37 38 38 38 39 39 38 37 36 35 33 30 25 20 19 18 15 10 10 12 12 18 20 21 9 7 9 12 31 27 26 26 23 19
35 35 35 35 36 36 36 37 37 38 38 39 39 39 40 40 39 40 40 40 39 38 36 33 25 19 17 10 7 4 3 10 12 12 15 17 16 10 10 11 16 12 26 28 26 25 22
36 36 36 37 37 37 38 38 39 39 40 40 41 41 42 42 42 41 41 39 40 38 36 21 15 14 18 20 12 8 6 13 16 14 15 15 11 14 12 23 32 32 32 32 30 25 23
37 37 37 38 38 38 39 40 40 41 41 42 42 43 44 44 44 44 41 41 37 33 25 14 8 13 22 18 9 18 2 1 16 13 15 9 13 11 18 21 19 25 30 34 29 25 22
37 38 38 39 39 40 40 41 41 42 43 44 44 45 46 46 46 46 43 40 28 23 16 9 12 18 24 16 22 8 2 4 10 13 2 4 7 14 17 26 33 32 26 35 32 27 19
38 38 40 40 40 41 42 43 43 44 45 45 46 46 47 48 48 46 43 30 19 18 15 18 17 21 24 18 14 10 9 5 4 8 4 5 7 12 21 15 16 25 25 35 36 19 20
39 39 40 41 42 43 44 45 45 46 46 47 48 48 48 49 49 43 36 24 27 25 23 25 21 23 23 18 10 12 10 10 5 9 10 11 11 27 22 40 35 27 33 30 36 36 27
40 41 41 43 44 45 45 46 47 47 48 49 49 49 49 50 49 36 29 25 24 29 38 33 38 40 34 19 18 9 11 13 12 14 8 7 30 17 11 16 27 32 42 37 34 32 29
40 41 42 43 44 45 46 47 48 48 49 50 50 50 50 50 44 31 28 23 29 30 34 34 27 29 27 21 24 13 14 15 18 16 25 22 17 13 13 15 20 27 31 23 35 26 28
41 42 43 44 45 46 47 48 49 50 51 51 51 50 51 51 31 36 26 28 34 26 37 34 27 25 19 20 34 21 15 17 21 22 14 18 17 12 22 28 26 36 26 34 33 34 41
42 43 44 45 46 47 49 50 50 51 52 53 52 51 51 39 33 33 32 35 33 21 41 23 21 13 14 19 23 28 19 23 22 17 18 15 15 13 23 22 16 39 22 26 33 37 38
43 44 45 46 48 48 49 51 52 52 53 54 53 52 49 32 31 33 35 34 19 32 42 27 21 22 20 23 23 19 26 26 25 25 23 20 23 15 12 11 13 16 17 17 21 29 47
43 44 46 47 48 49 50 51 52 52 53 54 54 53 41 32 36 38 33 23 31 40 30 31 29 26 27 25 25 21 26 30 26 24 24 20 22 20 15 13 11 15 11 12 14 24 45
43 44 45 46 46 47 48 49 50 52 53 54 54 49 33 30 36 36 29 25 42 34 35 30 31 33 30 27 27 24 24 32 32 29 25 25 32 22 16 15 16 19 18 20 19 30 41
43 43 43 43 45 47 48 48 49 50 51 52 50 39 31 33 38 29 28 34 35 33 34 37 36 35 32 28 28 28 27 34 32 30 32 29 34 25 27 22 18 20 26 20 32 25 31
41 41 42 42 42 43 44 46 45 46 48 49 45 36 31 38 32 26 28 34 31 28 33 32 38 33 37 33 30 29 28 28 33 32 33 28 30 31 20 22 23 22 18 18 18 36 34
38 40 39 37 38 41 42 44 43 42 43 42 36 34 34 40 25 25 31 34 33 31 31 30 34 38 35 34 30 30 30 23 27 31 31 32 32 24 25 30 25 23 21 21 18 29 37
39 38 36 37 36 35 35 40 40 38 39 36 33 32 34 33 26 25 29 32 30 32 30 31 32 33 35 32 33 30 31 27 24 27 33 30 32 36 31 26 31 28 27 26 30 31 44
37 35 34 34 37 37 37 37 37 36 35 29 32 27 26 29 26 28 28 27 27 29 30 30 32 30 30 32 35 28 27 24 23 23 28 29 37 38 38 32 29 37 34 31 30 29 39
36 36 36 35 35 36 37 36 35 33 30 27 26 29 25 25 24 27 29 27 27 27 23 27 31 29 32 34 30 32 29 25 25 23 24 26 32 42 44 40 29 33 31 34 36 49 51
33 34 32 33 35 36 35 34 33 30 27 24 24 23 22 26 27 29 28 26 27 26 24 24 24 25 30 38 37 37 32 30 25 25 26 27 36 34 35 34 35 37 39 36 40 45 57
29 29 30 30 33 35 32 31 29 29 24 23 24 22 19 19 19 24 26 24 27 27 26 26 27 25 26 30 34 39 34 33 33 30 28 29 37 36 41 39 41 45 45 43 42 44 46
25 27 28 28 29 30 29 30 29 25 22 22 18 17 17 15 17 15 22 26 29 29 24 23 27 31 33 28 28 33 36 38 39 37 34 34 36 38 46 39 44 55 55 47 45 44 44
22 29 27 27 26 28 28 27 24 21 17 17 17 16 16 14 12 3 5 22 28 29 29 31 30 31 27 30 33 33 34 38 39 41 39 38 37 38 45 39 56 42 33 38 42 42 44
28 28 28 26 24 26 26 25 22 18 17 13 14 15 14 12 9 2 1 13 28 25 29 31 28 24 27 27 30 31 30 32 36 39 39 40 40 43 48 51 52 48 36 34 38 43 36
26 29 26 24 22 25 25 23 21 15 14 12 12 10 11 11 10 6 2 3 16 21 24 22 24 23 21 23 26 32 36 33 35 33 33 38 40 43 43 54 58 42 38 33 32 51 32
23 25 24 23 21 24 24 24 21 18 11 9 10 9 9 7 3 1 2 3 7 6 9 17 21 21 19 22 27 30 32 29 36 38 36 37 43 54 54 54 49 42 31 28 46 38 32
22 24 24 21 20 22 23 22 20 17 12 9 8 6 7 9 3 4 7 9 11 11 11 12 19 16 18 21 24 26 29 29 34 36 38 41 44 48 51 57 65 39 41 43 33 33 38
21 24 24 20 20 23 23 21 19 16 12 8 7 5 3 3 3 6 10 14 17 19 16 14 16 14 18 17 18 20 25 26 29 37 30 45 45 41 46 50 41 38 43 42 38 41 40
Wind_Direction
353 351 349 348 346 343 341 339 337 333 330 327 324 320 318 315 312 308 303 297 291 287 282 284 293 311 321 309 195 316 4 79 132 150 157 159 164 214 199 261 272 218 246 252 243 227 220
356 355 353 350 348 346 344 341 338 334 330 327 323 320 319 315 310 306 303 298 291 284 278 289 306 319 319 255 348 91 50 117 131 155 162 160 170 230 247 273 172 282 249 246 247 233 212
357 355 354 351 349 347 345 343 340 336 332 329 326 323 321 318 311 306 303 298 294 284 271 311 314 317 308 215 328 331 124 149 145 148 167 173 246 173 269 257 247 218 240 244 241 257 272
355 353 353 350 348 347 345 342 340 337 334 331 327 325 323 320 314 308 304 302 300 304 312 320 323 309 299 312 215 283 326 294 157 143 154 184 250 191 262 267 271 258 247 241 245 256 273
355 354 353 349 348 346 344 343 340 337 334 331 329 326 324 321 316 312 309 308 324 338 345 359 320 299 298 314 275 249 245 258 150 150 135 170 223 255 258 250 246 234 257 229 246 253 278
356 355 352 351 349 346 344 341 339 336 333 331 329 327 325 322 319 314 313 325 340 342 343 319 314 295 288 298 294 268 203 155 207 161 176 268 222 237 252 229 226 254 254 236 223 264 268
357 355 353 351 348 346 344 341 338 336 333 330 328 326 326 322 319 314 324 329 317 312 307 288 293 286 292 290 307 271 197 174 265 164 176 176 185 188 190 237 246 256 249 250 227 235 265
357 354 353 351 349 347 344 341 339 337 333 330 329 326 325 322 319 320 327 324 324 310 289 286 271 265 267 285 275 264 178 194 199 183 194 212 195 186 207 247 251 251 240 243 246 249 260
357 355 353 352 350 349 346 344 341 338 335 332 330 328 324 322 318 329 323 323 322 319 293 291 285 275 268 261 264 245 189 232 191 196 184 187 276 198 197 197 196 199 198 252 248 262 261
357 356 355 354 352 349 347 343 340 338 335 331 329 328 325 322 326 322 319 315 317 316 290 286 284 282 269 261 259 255 222 236 249 200 218 202 199 183 187 191 187 200 240 253 256 255 244
356 356 355 353 350 347 345 344 341 338 335 332 330 328 324 329 323 319 314 312 310 310 280 292 283 291 282 252 274 252 233 247 239 233 235 219 209 235 185 189 190 221 258 255 256 254 255
356 355 353 351 349 347 345 342 339 338 335 331 328 325 324 328 324 319 314 310 307 281 271 281 284 275 272 263 271 272 236 245 254 249 244 243 262 215 224 237 203 258 262 259 263 264 243
359 357 355 352 350 348 346 344 342 339 337 333 329 324 325 325 317 317 314 304 279 269 283 276 273 277 271 265 261 262 232 222 231 233 238 230 251 258 250 239 212 203 219 256 240 226 226
1 359 358 357 356 354 352 350 347 344 340 337 332 328 327 326 320 317 310 283 268 277 272 283 277 273 264 265 260 258 242 228 236 241 243 237 248 236 238 228 242 202 210 251 192 202 243
3 2 3 3 2 359 357 354 352 349 344 341 337 336 331 329 323 317 299 270 275 276 280 276 273 265 262 263 263 256 250 239 236 243 249 242 248 255 243 248 224 240 201 210 261 272 258
8 8 8 7 7 6 4 0 359 356 351 345 340 335 329 332 329 316 291 273 274 288 288 278 263 266 258 260 257 254 248 257 243 248 251 252 253 248 240 235 238 246 231 242 242 209 213
12 10 11 13 12 10 7 6 5 4 1 358 352 335 339 331 335 310 286 280 279 283 287 276 268 263 261 258 260 254 253 260 255 251 251 247 250 254 237 235 227 239 225 249 255 259 224
12 13 15 13 14 15 14 11 9 10 9 11 4 342 347 342 328 315 297 293 288 281 281 272 272 267 261 261 256 253 249 254 269 258 245 248 249 244 244 249 245 240 242 237 249 256 240
14 15 17 17 13 12 12 13 13 14 17 19 10 7 10 358 327 317 314 306 296 288 279 270 266 269 266 258 252 255 255 261 270 264 252 250 246 241 245 249 248 244 243 243 251 262 251
13 13 14 16 13 12 12 13 15 18 21 25 25 10 14 8 355 328 317 307 302 300 283 275 268 265 262 254 256 253 254 259 266 264 264 253 248 243 242 246 250 247 248 244 248 248 242
14 15 18 16 15 12 13 13 16 19 24 28 31 26 19 0 348 327 323 315 305 301 290 282 268 270 265 253 252 251 256 258 260 265 260 255 246 248 249 251 252 252 250 251 250 252 236
15 16 16 17 17 14 15 15 17 19 28 31 26 26 28 11 9 350 335 321 310 306 295 277 266 279 272 259 257 252 258 254 253 259 258 258 249 251 249 252 254 251 251 252 254 256 257
15 13 14 14 15 15 16 14 15 22 29 29 33 31 28 29 19 22 355 320 303 305 301 290 275 277 265 267 268 265 260 257 256 255 254 255 250 250 247 253 254 250 247 252 256 259 259
13 10 12 11 12 12 13 14 15 20 27 28 30 29 26 20 32 29 234 265 288 297 295 287 284 270 271 280 277 270 261 256 255 252 250 250 250 250 249 252 245 252 259 256 258 260 260
7 7 8 7 7 7 7 8 9 14 23 30 32 34 31 19 25 318 134 242 284 272 291 290 287 284 287 275 265 261 256 254 252 250 247 246 248 248 246 246 253 255 255 255 257 257 266
5 3 3 2 0 2 3 1 4 0 15 30 30 45 36 24 37 45 41 211 245 257 295 320 293 288 287 272 263 254 250 253 250 251 250 246 246 247 246 245 245 252 255 262 263 257 264
360 0 358 356 353 358 357 357 356 360 358 21 32 54 46 28 21 109 128 156 88 138 187 242 293 298 294 270 260 257 255 259 250 248 247 244 245 242 244 247 250 253 259 265 250 258 273
355 355 354 348 344 351 353 352 352 352 356 9 28 68 53 30 334 221 219 216 210 188 187 182 262 301 292 275 266 261 259 260 258 256 252 248 246 245 244 246 246 255 255 253 265 272 274
349 351 349 336 337 347 350 350 348 344 351 359 16 60 93 62 347 263 245 226 217 211 196 172 184 177 277 292 286 279 267 267 266 258 262 251 249 251 246 248 255 260 259 264 270 271 276